World > North America > United States > Louisiana   City of Shreveport, LA
Hourly Weather in Shreveport, LouisianaShreveport, Louisiana Hourly Weather

Shreveport, LA Hourly Weather

Hourly Weather Shreveport, LouisianaHourly Weather in Shreveport, LA
Lat: 32.47N, Lon: 93.8W  ICAO: KDTN
Web Search
Shreveport Weather Warning NWS WEATHER ALERT FOR THE SHREVEPORT, LA AREA - Issued: 536 AM CDT Wed Oct 20 2021 Shreveport Weather Warning  

Helpful Tip: Abbreviated, 7 Day, 14 Day Forecasts. There is a weather forecast for every taste.

Feedback

Shreveport Hourly Weather

36 Hour Weather Scroll   °F Click to change Shreveport hourly weather to Imperial units.Click to change Shreveport hourly weather to Metric units. °C
Currently, Partly Cloudy, temperature is 86°F30°C, dew point 61°F16°C, humidity 43%. Wind direction is SE at 6 mph10 km/h with visibility of 10.00 mi16 km. Barometric pressure is 30.03 in1017 mb.

Oct 20
5:00 PM

Oct 20
6:00 PM

Oct 20
7:00 PM

Oct 20
8:00 PM

Oct 20
9:00 PM

Oct 20
10:00 PM

Oct 20
11:00 PM

Oct 21
MIDNIGHT

Oct 21
1:00 AM

Oct 21
2:00 AM

Oct 21
3:00 AM

Oct 21
4:00 AM

Oct 21
5:00 AM

Oct 21
6:00 AM

Oct 21
7:00 AM

Oct 21
8:00 AM

Oct 21
9:00 AM

Oct 21
10:00 AM

Oct 21
11:00 AM

Oct 21
NOON

Oct 21
1:00 PM

Oct 21
2:00 PM

Oct 21
3:00 PM

Oct 21
4:00 PM

Oct 21
5:00 PM

Oct 21
6:00 PM

Oct 21
7:00 PM

Oct 21
8:00 PM

Oct 21
9:00 PM

Oct 21
10:00 PM

Oct 21
11:00 PM

Oct 22
MIDNIGHT

Oct 22
1:00 AM

Oct 22
2:00 AM

Oct 22
3:00 AM

Oct 22
4:00 AM
Mostly Clear Clear Clear Clear Clear Clear Clear Clear Clear Clear Mostly Clear Mostly Clear Mostly Clear Clear Clear Clear Clear Clear Clear Mostly Clear Mostly Clear Mostly Clear Clear Clear Clear Clear Clear Clear Clear Clear Clear Clear Clear Clear Partly Cloudy Partly Cloudy
Mostly Clear Clear Clear Clear Clear Clear Clear Clear Clear Clear Mostly Clear Mostly Clear Mostly Clear Clear Clear Clear Clear Clear Clear Mostly Clear Mostly Clear Mostly Clear Clear Clear Clear Clear Clear Clear Clear Clear Clear Clear Clear Clear Partly Cloudy Partly Cloudy
82°F28°C 80°F27°C 78°F26°C 76°F24°C 73°F23°C 71°F22°C 70°F21°C 70°F21°C 69°F21°C 68°F20°C 68°F20°C 67°F19°C 67°F19°C 66°F19°C 66°F19°C 69°F21°C 72°F22°C 75°F24°C 78°F26°C 80°F27°C 83°F28°C 83°F28°C 84°F29°C 84°F29°C 81°F27°C 79°F26°C 76°F24°C 74°F23°C 71°F22°C 69°F21°C 68°F20°C 67°F19°C 66°F19°C 65°F18°C 64°F18°C 63°F17°C
- - - - - - - - - - - - - - - - - - - - - - - - - - - - - - - - - Rain Rain Rain
0% 0% 0% 1% 1% 1% 1% 1% 1% 1% 1% 1% 1% 1% 1% 3% 3% 3% 3% 3% 3% 4% 4% 4% 4% 4% 4% 7% 7% 7% 7% 7% 7% 29% 29% 29%
63°F17°C 63°F17°C 64°F18°C 64°F18°C 65°F18°C 65°F18°C 65°F18°C 65°F18°C 65°F18°C 65°F18°C 65°F18°C 65°F18°C 65°F18°C 64°F18°C 64°F18°C 65°F18°C 65°F18°C 66°F19°C 65°F18°C 63°F17°C 62°F17°C 61°F16°C 60°F16°C 59°F15°C 59°F15°C 60°F16°C 60°F16°C 60°F16°C 59°F15°C 59°F15°C 59°F15°C 58°F14°C 58°F14°C 58°F14°C 57°F14°C 57°F14°C
53% 56% 62% 66% 76% 81% 84% 84% 87% 90% 90% 93% 93% 93% 93% 87% 79% 74% 64% 56% 49% 48% 44% 43% 47% 52% 58% 62% 66% 71% 73% 73% 75% 78% 78% 81%
S S SSE SSE S S S S S SSE SW SW SSW SSW SSW W W NW NW NW NW NW NW NNW NNW NNW N SSW SE NE NE NE ENE ENE NE NE
6 mph 4 mph 4 mph 4 mph 2 mph 2 mph 2 mph 4 mph 4 mph 4 mph 3 mph 3 mph 3 mph 3 mph 3 mph 3 mph 5 mph 5 mph 5 mph 5 mph 5 mph 5 mph 5 mph 5 mph 5 mph 3 mph 3 mph 3 mph 3 mph 3 mph 3 mph 2 mph 2 mph 2 mph 2 mph 2 mph
10 mi16 km 10 mi16 km 10 mi16 km 10 mi16 km 10 mi16 km 10 mi16 km 10 mi16 km 10 mi16 km 10 mi16 km 10 mi16 km 10 mi16 km 10 mi16 km 10 mi16 km 10 mi16 km 10 mi16 km 10 mi16 km 10 mi16 km 10 mi16 km 10 mi16 km 10 mi16 km 10 mi16 km 10 mi16 km 10 mi16 km 10 mi16 km 10 mi16 km 10 mi16 km 10 mi16 km 10 mi16 km 10 mi16 km 10 mi16 km 10 mi16 km 10 mi16 km 10 mi16 km 10 mi16 km 10 mi16 km 10 mi16 km
Hour (CDT)
Weather
Clouds
Temperature
Precip. Type
POP
Dewpoint
Humidity
Wind Direction
Wind Speed
Visibility
POP = Probability of Precipitation. ** Indicates missing data/values from model statistics.

24 Hour Forecast

Tonight - Patchy fog after midnight. Mostly clear. Lows in the lower 60s. South winds 5 mph.
Thursday - Patchy fog through mid morning. Partly cloudy. Highs in the mid 80s. Northwest winds 10 mph.

48 Hour Forecast API Feed


Wed, Oct 20
5:00 pm

Wed, Oct 20
6:00 pm

Wed, Oct 20
7:00 pm

Wed, Oct 20
8:00 pm

Wed, Oct 20
9:00 pm

Wed, Oct 20
10:00 pm

Wed, Oct 20
11:00 pm

Thu, Oct 21
Midnight

Thu, Oct 21
1:00 am

Thu, Oct 21
2:00 am

Thu, Oct 21
3:00 am

Thu, Oct 21
4:00 am

Thu, Oct 21
5:00 am

Thu, Oct 21
6:00 am

Thu, Oct 21
7:00 am

Thu, Oct 21
8:00 am

Thu, Oct 21
9:00 am

Thu, Oct 21
10:00 am

Thu, Oct 21
11:00 am

Thu, Oct 21
Noon

Thu, Oct 21
1:00 pm

Thu, Oct 21
2:00 pm

Thu, Oct 21
3:00 pm

Thu, Oct 21
4:00 pm

Thu, Oct 21
5:00 pm

Thu, Oct 21
6:00 pm

Thu, Oct 21
7:00 pm

Thu, Oct 21
8:00 pm

Thu, Oct 21
9:00 pm

Thu, Oct 21
10:00 pm

Thu, Oct 21
11:00 pm

Fri, Oct 22
Midnight

Fri, Oct 22
1:00 am

Fri, Oct 22
2:00 am

Fri, Oct 22
3:00 am

Fri, Oct 22
4:00 am

Fri, Oct 22
5:00 am

Fri, Oct 22
6:00 am

Fri, Oct 22
7:00 am

Fri, Oct 22
8:00 am

Fri, Oct 22
9:00 am

Fri, Oct 22
10:00 am

Fri, Oct 22
11:00 am

Fri, Oct 22
Noon

Fri, Oct 22
1:00 pm

Fri, Oct 22
2:00 pm

Fri, Oct 22
3:00 pm

Fri, Oct 22
4:00 pm
SunnySunnyClearClearClearClearClearClearClearPartly CloudyPartly CloudyPartly CloudyClearClearClearSunnySunnySunnySunnySunnySunnyThundery Outbreaks PossibleSunnyPartly CloudySunnySunnyClearClearClearClearClearClearPatchy Rain PossiblePatchy Rain PossiblePatchy Rain PossiblePatchy Rain PossiblePatchy Rain PossiblePatchy Rain PossiblePatchy Rain PossiblePartly CloudySunnySunnySunnySunnyPartly CloudyPartly CloudyPartly CloudyPatchy Rain Possible
Sunny Sunny Clear Clear Clear Clear Clear Clear Clear Partly cloudy Partly cloudy Partly cloudy Clear Clear Clear Sunny Sunny Sunny Sunny Sunny Sunny Thundery outbreaks possible Sunny Partly cloudy Sunny Sunny Clear Clear Clear Clear Clear Clear Patchy rain possible Patchy rain possible Patchy rain possible Patchy rain possible Patchy rain possible Patchy rain possible Patchy rain possible Partly cloudy Sunny Sunny Sunny Sunny Partly cloudy Partly cloudy Partly cloudy Patchy rain possible
86°F
30°C
84°F
29°C
79°F
26°C
76°F
25°C
75°F
24°C
73°F
23°C
72°F
22°C
71°F
22°C
71°F
21°C
70°F
21°C
69°F
21°C
69°F
21°C
69°F
20°C
68°F
20°C
68°F
20°C
68°F
20°C
72°F
22°C
76°F
25°C
85°F
30°C
88°F
31°C
91°F
33°C
88°F
31°C
89°F
32°C
89°F
32°C
90°F
32°C
85°F
29°C
79°F
26°C
76°F
24°C
74°F
24°C
73°F
23°C
72°F
22°C
70°F
21°C
68°F
20°C
67°F
19°C
64°F
18°C
63°F
17°C
63°F
17°C
63°F
17°C
62°F
17°C
62°F
17°C
65°F
18°C
69°F
21°C
74°F
23°C
77°F
25°C
82°F
28°C
82°F
28°C
80°F
27°C
80°F
27°C
59°F
15°C
62°F
17°C
61°F
16°C
61°F
16°C
62°F
17°C
63°F
17°C
64°F
18°C
64°F
18°C
64°F
18°C
64°F
18°C
64°F
18°C
64°F
18°C
64°F
18°C
64°F
18°C
63°F
17°C
63°F
17°C
62°F
17°C
62°F
17°C
68°F
20°C
68°F
20°C
68°F
20°C
63°F
17°C
62°F
17°C
60°F
16°C
62°F
17°C
62°F
17°C
58°F
14°C
53°F
12°C
51°F
10°C
48°F
9°C
46°F
8°C
46°F
8°C
46°F
8°C
47°F
9°C
55°F
13°C
56°F
13°C
58°F
14°C
57°F
14°C
57°F
14°C
56°F
13°C
56°F
13°C
56°F
14°C
58°F
14°C
58°F
14°C
59°F
15°C
60°F
16°C
62°F
17°C
64°F
18°C
30 in
1016 mb
29.97 in
1015 mb
30 in
1016 mb
30.03 in
1017 mb
30.03 in
1017 mb
30.06 in
1018 mb
30.06 in
1018 mb
30.06 in
1018 mb
30.03 in
1017 mb
30.06 in
1018 mb
30.06 in
1018 mb
30.06 in
1018 mb
30.06 in
1018 mb
30.06 in
1018 mb
30.09 in
1019 mb
30.09 in
1019 mb
30.12 in
1020 mb
30.12 in
1020 mb
30.12 in
1020 mb
30.09 in
1019 mb
30.06 in
1018 mb
30.03 in
1017 mb
30.03 in
1017 mb
30 in
1016 mb
30 in
1016 mb
30.03 in
1017 mb
30.03 in
1017 mb
30.06 in
1018 mb
30.06 in
1018 mb
30.06 in
1018 mb
30.06 in
1018 mb
30.06 in
1018 mb
30.06 in
1018 mb
30.06 in
1018 mb
30.06 in
1018 mb
30.06 in
1018 mb
30.06 in
1018 mb
30.06 in
1018 mb
30.06 in
1018 mb
30.06 in
1018 mb
30.09 in
1019 mb
30.09 in
1019 mb
30.09 in
1019 mb
30.06 in
1018 mb
30.03 in
1017 mb
30 in
1016 mb
29.97 in
1015 mb
29.97 in
1015 mb
40%49%54%59%66%71%74%76%79%81%82%83%85%86%86%83%71%63%57%52%47%44%41%39%40%46%48%45%43%42%40%42%45%49%70%78%83%83%84%81%73%64%56%52%47%47%55%56%
SSWSSWSSESSESSESSSWSSWSSWSWWSWSWSWSWWSWWWNWWNWWNWWNWWNWWNWNWNWNNWNNNENENEENEENEENEENEENEENEENEEEEEEEEESESEE
4 mph
6 km/h
2 mph
3 km/h
2 mph
3 km/h
4 mph
6 km/h
4 mph
7 km/h
4 mph
7 km/h
4 mph
6 km/h
4 mph
6 km/h
4 mph
6 km/h
4 mph
6 km/h
3 mph
5 km/h
4 mph
6 km/h
4 mph
6 km/h
4 mph
6 km/h
4 mph
6 km/h
4 mph
6 km/h
4 mph
7 km/h
5 mph
8 km/h
5 mph
8 km/h
4 mph
7 km/h
4 mph
7 km/h
5 mph
8 km/h
4 mph
7 km/h
4 mph
7 km/h
5 mph
8 km/h
5 mph
9 km/h
7 mph
11 km/h
6 mph
9 km/h
5 mph
8 km/h
5 mph
8 km/h
4 mph
7 km/h
5 mph
8 km/h
4 mph
7 km/h
3 mph
5 km/h
3 mph
5 km/h
4 mph
6 km/h
3 mph
4 km/h
2 mph
4 km/h
5 mph
8 km/h
4 mph
7 km/h
5 mph
8 km/h
3 mph
5 km/h
2 mph
4 km/h
4 mph
6 km/h
2 mph
4 km/h
3 mph
5 km/h
1 mph
2 km/h
2 mph
3 km/h
0%0%0%0%0%0%0%0%0%0%0%0%0%0%0%0%0%0%0%0%0%0%0%0%0%0%0%0%0%0%0%0%61%80%89%56%61%82%79%0%0%0%0%0%0%0%0%70%
6 mi
10 km
6 mi
10 km
6 mi
10 km
6 mi
10 km
6 mi
10 km
6 mi
10 km
6 mi
10 km
6 mi
10 km
6 mi
10 km
6 mi
10 km
6 mi
10 km
6 mi
10 km
6 mi
10 km
6 mi
10 km
6 mi
10 km
6 mi
10 km
6 mi
10 km
6 mi
10 km
6 mi
10 km
6 mi
10 km
6 mi
10 km
6 mi
9 km
6 mi
10 km
6 mi
10 km
6 mi
10 km
6 mi
10 km
6 mi
10 km
6 mi
10 km
6 mi
10 km
6 mi
10 km
6 mi
10 km
6 mi
10 km
6 mi
10 km
6 mi
10 km
6 mi
10 km
6 mi
9 km
6 mi
9 km
6 mi
9 km
6 mi
9 km
6 mi
10 km
6 mi
10 km
6 mi
10 km
6 mi
10 km
6 mi
10 km
6 mi
10 km
6 mi
10 km
6 mi
10 km
6 mi
9 km

Day/Time
Weather
Condition
Temperature
Dew Point
Pressure
Humidity
Wind Direction
Wind Speed
Prob Precip %
Visibility
Prob Precip % = Probability of Precipitation.